Retour au catalogue

COSMOS 1024 DEB

LostHEO
NORAD 32968·DEBRIS·🇷🇺 Russia

Lancé Jun 28, 1978 depuis Plesetsk Cosmodrome

Loading…

Prochains Passages (prochaines 24 heures)

TLE

PériméSource: Space-Track

Époque: Oct 29, 2011, 09:01 UTC

1 32968U 78066H   11302.37570699  .00000073  00000-0  00000+0 0  9997
2 32968  69.0129 213.8131 4938651 103.8946   7.8147  1.97202034 61791

Suivez COSMOS 1024 DEB en temps réel avec AllMySat

Download on the App Store